Pula, Croatia

7:46 AM CEST on April 26, 2017 (GMT +0200)
Pula

Weather History for LDPL - November, 2012

Change the Weather History Date:

Tuesday, November 6, 2012

  Actual Average Record
Temperature  
Mean Temperature 56 °F -  
Max Temperature 63 °F - - ()
Min Temperature 48 °F - - ()
Degree Days  
Heating Degree Days 10    
Growing Degree Days 6 (Base 50)    
Moisture  
Dew Point 48 °F    
Average Humidity 77    
Maximum Humidity 94    
Minimum Humidity 53    
Precipitation  
Precipitation 0.04 in - - ()
Sea Level Pressure  
Sea Level Pressure 29.90 in    
Wind  
Wind Speed 4 mph ()    
Max Wind Speed 21 mph    
Max Gust Speed 31 mph    
Visibility 8.4 miles    
Events Rain , Thunderstorm    
T = Trace of Precipitation, MM = Missing Value Source: Averaged Metar Reports

Daily Weather History Graph

Daily Weather History Graph

Search for Another Location

Airport or City:

Trip Planner

Search our weather history database for the weather conditions in past years. The results will help you decide how hot, cold, wet, or windy it might be!

Date:

Astronomy

Nov. 06, 2012 Rise Set
Actual Time 6:49 AM CET 4:45 PM CET
Civil Twilight 6:18 AM CET 5:16 PM CET
Nautical Twilight 5:43 AM CET 5:51 PM CET
Astronomical Twilight 5:09 AM CET 6:25 PM CET
Moon 11:09 PM CET (11/6) 12:31 PM CET (11/6)
Length of Visible Light 10h 57m
Length of Day
9h 55m
Waning Gibbous, 56% of the Moon is Illuminated
Nov 6
Waning Gibbous
Nov 7
Last Quarter
Nov 13
New
Nov 20
First Quarter
Nov 28
Full

Hourly Weather History & Observations

Time (CET) Temp. Dew Point Humidity Pressure Visibility Wind Dir Wind Speed Gust Speed Precip Events Conditions
12:00 AM 55.4 °F 50.0 °F 82% 29.80 in 6.2 mi Variable 1.2 mph - N/A   Scattered Clouds
12:30 AM 55.4 °F 50.0 °F 82% 29.80 in 6.2 mi Variable 2.3 mph - N/A   Scattered Clouds
1:00 AM 57 °F 50 °F 72% 29.81 in 16 mi SSW 2.2 mph - -   Mostly Cloudy
1:00 AM 57.2 °F 50.0 °F 77% 29.80 in 6.2 mi Variable 2.3 mph - N/A   Mostly Cloudy
1:30 AM 55.4 °F 50.0 °F 82% 29.80 in 6.2 mi Variable 2.3 mph - N/A   Scattered Clouds
2:00 AM 53.6 °F 48.2 °F 82% 29.80 in 6.2 mi Variable 1.2 mph - N/A   Partly Cloudy
2:30 AM 50.0 °F 48.2 °F 94% 29.80 in 6.2 mi Variable 2.3 mph - N/A   Partly Cloudy
3:00 AM 51.8 °F 50.0 °F 94% 29.83 in - Variable 2.3 mph - N/A   Clear
3:30 AM 53.6 °F 50.0 °F 88% 29.83 in - Variable 3.5 mph - N/A   Clear
4:00 AM 54 °F 49 °F 79% 29.83 in 16 mi South 2.2 mph - -   Partly Cloudy
4:00 AM 53.6 °F 50.0 °F 88% 29.83 in - Variable 2.3 mph - N/A   Clear
4:30 AM 53.6 °F 48.2 °F 82% 29.83 in - Variable 2.3 mph - N/A   Clear
5:00 AM 54 °F 49 °F 77%  in 16 mi SSE 4.5 mph - -   Partly Cloudy
5:00 AM 53.6 °F 48.2 °F 82% 29.83 in - Variable 2.3 mph - N/A   Clear
5:30 AM 51.8 °F 48.2 °F 88% 29.83 in - Variable 1.2 mph - N/A   Clear
6:00 AM 49 °F 45 °F 83% 29.85 in 16 mi Calm Calm - -   Partly Cloudy
6:00 AM 48.2 °F 44.6 °F 87% 29.83 in - Calm Calm - N/A   Clear
6:30 AM 51.8 °F 48.2 °F 88% 29.83 in - Calm Calm - N/A   Clear
7:00 AM 49 °F 46 °F 86% 29.86 in 16 mi ESE 2.2 mph - -   Partly Cloudy
7:00 AM 48.2 °F 46.4 °F 93% 29.86 in - Variable 2.3 mph - N/A   Clear
7:30 AM 50.0 °F 48.2 °F 94% 29.86 in - ENE 4.6 mph - N/A   Clear
8:00 AM 51.8 °F 50.0 °F 94% 29.86 in - Calm Calm - N/A   Clear
8:30 AM 53.6 °F 51.8 °F 94% 29.86 in - Variable 1.2 mph - N/A   Clear
9:00 AM 60.8 °F 53.6 °F 77% 29.89 in - Variable 4.6 mph - N/A   Clear
9:30 AM 60.8 °F 50.0 °F 68% 29.89 in 6.2 mi SW 6.9 mph - N/A   Partly Cloudy
10:00 AM 61 °F 50 °F 59% 29.90 in 25 mi SW 6.7 mph - -   Scattered Clouds
10:00 AM 60.8 °F 50.0 °F 68% 29.89 in 6.2 mi SW 8.1 mph - N/A   Partly Cloudy
10:30 AM 62.6 °F 50.0 °F 63% 29.89 in 6.2 mi SW 9.2 mph - N/A   Partly Cloudy
11:00 AM 62.6 °F 50.0 °F 63% 29.89 in 6.2 mi SW 9.2 mph - N/A   Partly Cloudy
11:30 AM 62.6 °F 48.2 °F 59% 29.89 in 6.2 mi WSW 10.4 mph - N/A   Partly Cloudy
12:00 PM 62.6 °F 48.2 °F 59% 29.89 in 6.2 mi WSW 10.4 mph - N/A   Partly Cloudy
12:30 PM 60.8 °F 50.0 °F 68% 29.89 in 6.2 mi WSW 9.2 mph - N/A   Partly Cloudy
1:00 PM 61 °F 48 °F 53% 29.91 in 25 mi WSW 8.9 mph - -   Clear
1:00 PM 60.8 °F 48.2 °F 63% 29.89 in - WSW 8.1 mph - N/A   Clear
1:30 PM 62.6 °F 48.2 °F 59% 29.89 in - SW 9.2 mph - N/A   Clear
2:00 PM 62.6 °F 48.2 °F 59% 29.89 in - WSW 10.4 mph - N/A   Clear
2:30 PM 60.8 °F 48.2 °F 63% 29.89 in - WSW 11.5 mph - N/A   Clear
3:00 PM 60.8 °F 48.2 °F 63% 29.92 in - WSW 8.1 mph - N/A   Clear
3:30 PM 59.0 °F 48.2 °F 67% 29.92 in - WSW 5.8 mph - N/A   Clear
4:00 PM 59 °F 49 °F 60% 29.93 in 25 mi SW 2.2 mph - -   Clear
4:00 PM 59.0 °F 48.2 °F 67% 29.92 in - SW 4.6 mph - N/A   Clear
4:30 PM 57.2 °F 48.2 °F 72% 29.92 in - Variable 2.3 mph - N/A   Clear
5:00 PM 55.4 °F 46.4 °F 72% 29.92 in - Calm Calm - N/A   Clear
5:30 PM 51.8 °F 48.2 °F 88% 29.95 in - Variable 1.2 mph - N/A   Clear
6:00 PM 50.0 °F 46.4 °F 87% 29.95 in - Variable 2.3 mph - N/A   Clear
6:30 PM 50.0 °F 46.4 °F 87% 29.95 in - Variable 2.3 mph - N/A   Clear
7:00 PM 48 °F 45 °F 86% 29.98 in 12 mi East 2.2 mph - -   Scattered Clouds
7:00 PM 48.2 °F 44.6 °F 87% 29.95 in - Variable 2.3 mph - N/A   Clear
7:30 PM 50.0 °F 46.4 °F 87% 29.98 in - Variable 2.3 mph - N/A   Clear
8:00 PM 50.0 °F 48.2 °F 94% 29.98 in 6.2 mi Variable 1.2 mph - N/A   Partly Cloudy
8:30 PM 53.6 °F 50.0 °F 88% 30.01 in 6.2 mi North 8.1 mph - N/A Thunderstorm Thunderstorm
9:00 PM 53.6 °F 42.8 °F 67% 30.01 in 6.2 mi North 12.7 mph - N/A   Scattered Clouds
9:30 PM 51.8 °F 41.0 °F 67% 30.04 in 6.2 mi North 12.7 mph - N/A Rain , Thunderstorm Light Thunderstorms and Rain
10:00 PM 49 °F 42 °F 71% 30.07 in 12 mi NE 13.4 mph - - Thunderstorm Thunderstorm
10:00 PM 50.0 °F 42.8 °F 76% 30.04 in 6.2 mi NE 12.7 mph - N/A Thunderstorm Thunderstorm
10:30 PM 50.0 °F 42.8 °F 76% 30.04 in 6.2 mi ENE 17.3 mph - N/A   Partly Cloudy
11:00 PM 51.8 °F 42.8 °F 71% 30.06 in 6.2 mi NE 19.6 mph 31.1 mph N/A   Partly Cloudy
11:30 PM 50.0 °F 42.8 °F 76% 30.06 in 6.2 mi ENE 20.7 mph - N/A   Partly Cloudy